sat.trackr.live / text

‹ back to catalog

ADRAS-J

NORAD 58992 · 2024-034A

PAYLOAD ACTIVE UNKNOWN

§ Identity

Operator
Country
JPN
Launch date
2024-02-18
Launch site
RLLB
Launch vehicle
Mass (kg)
RCS (m²)

External: N2YO · Heavens-Above · Gunter

§ Orbital elements

Epoch: 2026-05-25T03:38:20.685120Z

Period
93.44 min
Inclination
98.2238°
Eccentricity
0.0176660
Mean motion
15.41071118 rev/d
Perigee alt
322.4 km
Apogee alt
563.4 km
Semi-major
6,821.1 km
B*
9.3806e-4
RAAN
173.2013°
Arg perigee
193.4418°
Mean anomaly
166.2089°
Rev number
12,403

§ Raw data

ADRAS-J1 58992U 24034A   26145.15162830  .00068782  00000+0  93806-3 0  99992 58992  98.2238 173.2013 0176660 193.4418 166.2089 15.41071118124031

JSON: /api/v1/satellites/58992 · /tle

For live sub-satellite position, see the globe view (requires WebGL).

§ Visibility from observer

Set your observer location to see the next 7 days of passes ≥ 10°. The values pass through the URL so the page stays shareable.

No JS? Fill the form by hand. The geolocation button needs JavaScript.